Tracking 29892 objects as of 21-Nov-2024
HD Live streaming from Space Station
objects crossing your sky now

STARLINK-5356

Track STARLINK-5356 now!
10-day predictions
STARLINK-5356 is classified as:


NORAD ID: 56418
Int'l Code: 2023-061AW
Perigee: 565.5 km
Apogee: 567.0 km
Inclination: 43.0 °
Period: 95.8 minutes
Semi major axis: 6937 km
RCS: Unknown
Launch date: May 4, 2023
Source: United States (US)
Launch site: AIR FORCE EASTERN TEST RANGE (AFETR)
Your satellite tracking list
Your tracking list is empty




NASA's NSSDC Master Catalog

Two Line Element Set (TLE):
1 56418U 23061AW  24325.91219501 -.00002012  00000-0 -13402-3 0  9990
2 56418  43.0041 226.0593 0001092 269.8343  90.2374 15.02516011 85787
Source of the keplerian elements: AFSPC